Time,TemperatureF,DewpointF,PressureIn,WindDirection,WindDirectionDegrees,WindSpeedMPH,WindSpeedGustMPH,Humidity,HourlyPrecipIn,Conditions,Clouds,dailyrainin,SoftwareType,DateUTC
2013-04-22 00:01:00,35.1,30.2,30.66,SE,128,0.0,1.0,82,0.00,,,0.00,meteohub,2013-04-22 04:01:00,
2013-04-22 00:02:00,35.1,30.2,30.66,SE,128,0.0,1.0,82,0.00,,,0.00,meteohub,2013-04-22 04:02:00,
2013-04-22 00:07:00,35.1,30.2,30.66,SE,128,0.0,1.0,82,0.00,,,0.00,meteohub,2013-04-22 04:07:00,
2013-04-22 00:12:00,35.2,30.0,30.66,SE,128,0.0,1.0,81,0.00,,,0.00,meteohub,2013-04-22 04:12:00,
2013-04-22 00:17:00,35.2,30.0,30.67,SE,128,0.0,0.0,81,0.00,,,0.00,meteohub,2013-04-22 04:17:00,
2013-04-22 00:22:00,35.2,30.0,30.66,SE,128,0.0,0.0,81,0.00,,,0.00,meteohub,2013-04-22 04:22:00,
2013-04-22 00:27:00,35.1,29.8,30.66,SE,128,0.0,0.0,81,0.00,,,0.00,meteohub,2013-04-22 04:27:00,
2013-04-22 00:32:00,34.9,30.0,30.67,SE,128,0.0,1.0,82,0.00,,,0.00,meteohub,2013-04-22 04:32:00,
2013-04-22 00:37:00,34.9,30.0,30.67,SE,128,0.0,1.0,82,0.00,,,0.00,meteohub,2013-04-22 04:37:00,
2013-04-22 00:42:00,35.1,29.8,30.67,SE,128,0.0,1.0,81,0.00,,,0.00,meteohub,2013-04-22 04:42:00,
2013-04-22 00:47:00,34.9,30.0,30.67,SE,128,0.0,0.0,82,0.00,,,0.00,meteohub,2013-04-22 04:47:00,
2013-04-22 00:52:00,34.5,29.8,30.67,SE,128,0.0,2.0,83,0.00,,,0.00,meteohub,2013-04-22 04:52:00,
2013-04-22 00:57:00,34.5,29.8,30.67,SE,128,0.0,2.0,83,0.00,,,0.00,meteohub,2013-04-22 04:57:00,
2013-04-22 01:02:00,34.3,29.7,30.67,SE,128,0.0,2.0,83,0.00,,,0.00,meteohub,2013-04-22 05:02:00,
2013-04-22 01:07:00,34.2,29.8,30.67,SE,128,0.0,1.0,84,0.00,,,0.00,meteohub,2013-04-22 05:07:00,
2013-04-22 01:12:00,34.2,29.5,30.67,SE,128,0.0,0.0,83,0.00,,,0.00,meteohub,2013-04-22 05:12:00,
2013-04-22 01:17:00,34.7,29.8,30.67,SE,128,0.0,0.0,82,0.00,,,0.00,meteohub,2013-04-22 05:17:00,
2013-04-22 01:22:00,34.5,29.7,30.67,SE,128,0.0,0.0,82,0.00,,,0.00,meteohub,2013-04-22 05:22:00,
2013-04-22 01:27:00,34.2,29.3,30.67,SE,128,0.0,0.0,82,0.00,,,0.00,meteohub,2013-04-22 05:27:00,
2013-04-22 01:32:00,34.0,29.3,30.66,SE,128,0.0,0.0,83,0.00,,,0.00,meteohub,2013-04-22 05:32:00,
2013-04-22 01:37:00,33.6,29.3,30.67,SE,128,0.0,0.0,84,0.00,,,0.00,meteohub,2013-04-22 05:37:00,
2013-04-22 01:42:00,33.3,29.3,30.67,SE,128,0.0,0.0,85,0.00,,,0.00,meteohub,2013-04-22 05:42:00,
2013-04-22 01:47:00,33.1,29.3,30.66,SE,128,0.0,0.0,86,0.00,,,0.00,meteohub,2013-04-22 05:47:00,
2013-04-22 01:52:00,33.1,29.3,30.66,SE,128,0.0,0.0,86,0.00,,,0.00,meteohub,2013-04-22 05:52:00,
2013-04-22 01:57:00,33.3,29.5,30.66,SE,128,0.0,0.0,86,0.00,,,0.00,meteohub,2013-04-22 05:57:00,
2013-04-22 02:02:00,33.4,29.5,30.66,SE,128,0.0,0.0,85,0.00,,,0.00,meteohub,2013-04-22 06:02:00,
2013-04-22 02:07:00,33.3,29.3,30.66,SE,128,0.0,0.0,85,0.00,,,0.00,meteohub,2013-04-22 06:07:00,
2013-04-22 02:12:00,32.7,28.9,30.66,SE,128,0.0,0.0,86,0.00,,,0.00,meteohub,2013-04-22 06:12:00,
2013-04-22 02:17:00,32.5,28.8,30.66,SE,128,0.0,1.0,86,0.00,,,0.00,meteohub,2013-04-22 06:17:00,
2013-04-22 02:22:00,32.7,28.9,30.66,SE,128,0.0,1.0,86,0.00,,,0.00,meteohub,2013-04-22 06:22:00,
2013-04-22 02:27:00,32.9,29.1,30.66,SE,128,0.0,1.0,86,0.00,,,0.00,meteohub,2013-04-22 06:27:00,
2013-04-22 02:32:00,32.4,28.6,30.66,SE,128,0.0,0.0,86,0.00,,,0.00,meteohub,2013-04-22 06:32:00,
2013-04-22 02:37:00,32.7,29.3,30.66,SE,128,0.0,0.0,87,0.00,,,0.00,meteohub,2013-04-22 06:37:00,
2013-04-22 02:42:00,32.2,28.8,30.66,SE,128,0.0,0.0,87,0.00,,,0.00,meteohub,2013-04-22 06:42:00,
2013-04-22 02:47:00,31.8,28.8,30.66,SE,128,0.0,0.0,88,0.00,,,0.00,meteohub,2013-04-22 06:47:00,
2013-04-22 02:52:00,32.4,28.9,30.66,SE,128,0.0,0.0,87,0.00,,,0.00,meteohub,2013-04-22 06:52:00,
2013-04-22 02:57:00,32.0,28.9,30.66,SE,128,0.0,0.0,88,0.00,,,0.00,meteohub,2013-04-22 06:57:00,
2013-04-22 03:02:00,32.0,28.6,30.66,SE,128,0.0,0.0,87,0.00,,,0.00,meteohub,2013-04-22 07:02:00,
2013-04-22 03:07:00,32.2,28.9,30.66,SE,128,0.0,0.0,88,0.00,,,0.00,meteohub,2013-04-22 07:07:00,
2013-04-22 03:12:00,31.8,28.4,30.66,SE,128,0.0,0.0,87,0.00,,,0.00,meteohub,2013-04-22 07:12:00,
2013-04-22 03:17:00,32.0,28.6,30.66,SE,128,0.0,0.0,87,0.00,,,0.00,meteohub,2013-04-22 07:17:00,
2013-04-22 03:22:00,31.8,28.4,30.66,SE,128,0.0,0.0,87,0.00,,,0.00,meteohub,2013-04-22 07:22:00,
2013-04-22 03:27:00,31.8,28.4,30.67,SE,128,0.0,0.0,87,0.00,,,0.00,meteohub,2013-04-22 07:27:00,
2013-04-22 03:32:00,31.5,28.4,30.67,SE,128,0.0,0.0,88,0.00,,,0.00,meteohub,2013-04-22 07:32:00,
2013-04-22 03:38:00,31.1,28.0,30.67,SE,128,0.0,0.0,88,0.00,,,0.00,meteohub,2013-04-22 07:38:00,
2013-04-22 03:42:00,30.9,28.0,30.67,SE,128,0.0,0.0,89,0.00,,,0.00,meteohub,2013-04-22 07:42:00,
2013-04-22 03:47:00,30.7,28.2,30.67,SE,128,0.0,0.0,90,0.00,,,0.00,meteohub,2013-04-22 07:47:00,
2013-04-22 03:52:00,30.7,27.9,30.67,SE,128,0.0,0.0,89,0.00,,,0.00,meteohub,2013-04-22 07:52:00,
2013-04-22 03:57:00,30.6,28.0,30.67,SE,128,0.0,0.0,90,0.00,,,0.00,meteohub,2013-04-22 07:57:00,
2013-04-22 04:02:00,30.9,28.0,30.67,SE,128,0.0,0.0,89,0.00,,,0.00,meteohub,2013-04-22 08:02:00,
2013-04-22 04:07:00,30.9,28.0,30.67,SE,128,0.0,0.0,89,0.00,,,0.00,meteohub,2013-04-22 08:07:00,
2013-04-22 04:12:00,30.7,27.7,30.68,SE,128,0.0,0.0,88,0.00,,,0.00,meteohub,2013-04-22 08:12:00,
2013-04-22 04:17:00,30.7,27.9,30.68,SE,128,0.0,0.0,89,0.00,,,0.00,meteohub,2013-04-22 08:17:00,
2013-04-22 04:22:00,30.4,27.5,30.68,SE,128,0.0,0.0,89,0.00,,,0.00,meteohub,2013-04-22 08:22:00,
2013-04-22 04:28:00,30.0,27.5,30.68,SE,128,0.0,0.0,90,0.00,,,0.00,meteohub,2013-04-22 08:28:00,
2013-04-22 04:33:00,30.4,27.9,30.68,SE,128,0.0,0.0,90,0.00,,,0.00,meteohub,2013-04-22 08:33:00,
2013-04-22 04:38:00,30.6,28.0,30.68,SE,128,0.0,0.0,90,0.00,,,0.00,meteohub,2013-04-22 08:38:00,
2013-04-22 04:43:00,30.9,28.0,30.68,SE,128,0.0,0.0,89,0.00,,,0.00,meteohub,2013-04-22 08:43:00,
2013-04-22 04:48:00,30.9,28.0,30.69,SE,128,0.0,0.0,89,0.00,,,0.00,meteohub,2013-04-22 08:48:00,
2013-04-22 04:53:00,30.7,27.9,30.69,SE,128,0.0,0.0,89,0.00,,,0.00,meteohub,2013-04-22 08:53:00,
2013-04-22 04:58:00,30.6,28.0,30.69,SE,128,0.0,0.0,90,0.00,,,0.00,meteohub,2013-04-22 08:58:00,
2013-04-22 05:03:00,30.7,28.2,30.69,SE,128,0.0,0.0,90,0.00,,,0.00,meteohub,2013-04-22 09:03:00,
2013-04-22 05:08:00,30.9,28.4,30.69,SE,128,0.0,0.0,90,0.00,,,0.00,meteohub,2013-04-22 09:08:00,
2013-04-22 05:13:00,31.1,28.2,30.69,SE,128,0.0,0.0,89,0.00,,,0.00,meteohub,2013-04-22 09:13:00,
2013-04-22 05:18:00,31.3,28.8,30.69,SE,128,0.0,0.0,90,0.00,,,0.00,meteohub,2013-04-22 09:18:00,
2013-04-22 05:23:00,31.1,28.2,30.69,SE,128,0.0,0.0,89,0.00,,,0.00,meteohub,2013-04-22 09:23:00,
2013-04-22 05:28:00,31.3,28.4,30.69,SE,128,0.0,0.0,89,0.00,,,0.00,meteohub,2013-04-22 09:28:00,
2013-04-22 05:33:00,31.5,28.6,30.69,SE,128,0.0,0.0,89,0.00,,,0.00,meteohub,2013-04-22 09:33:00,
2013-04-22 05:38:00,31.5,28.4,30.69,SE,128,0.0,0.0,88,0.00,,,0.00,meteohub,2013-04-22 09:38:00,
2013-04-22 05:43:00,31.5,28.4,30.69,SE,128,0.0,0.0,88,0.00,,,0.00,meteohub,2013-04-22 09:43:00,
2013-04-22 05:48:00,31.3,28.4,30.69,SE,128,0.0,0.0,89,0.00,,,0.00,meteohub,2013-04-22 09:48:00,
2013-04-22 05:53:00,31.5,28.6,30.69,SE,128,0.0,0.0,89,0.00,,,0.00,meteohub,2013-04-22 09:53:00,
2013-04-22 05:58:00,31.3,28.4,30.70,SE,128,0.0,0.0,89,0.00,,,0.00,meteohub,2013-04-22 09:58:00,
2013-04-22 06:03:00,30.9,28.0,30.70,SE,128,0.0,0.0,89,0.00,,,0.00,meteohub,2013-04-22 10:03:00,
2013-04-22 06:08:00,30.9,28.0,30.70,SE,128,0.0,0.0,89,0.00,,,0.00,meteohub,2013-04-22 10:08:00,
2013-04-22 06:13:00,31.1,28.2,30.69,SE,128,0.0,0.0,89,0.00,,,0.00,meteohub,2013-04-22 10:13:00,
2013-04-22 06:18:00,31.1,28.2,30.69,SE,128,0.0,0.0,89,0.00,,,0.00,meteohub,2013-04-22 10:18:00,
2013-04-22 06:23:00,30.9,28.0,30.69,SE,128,0.0,0.0,89,0.00,,,0.00,meteohub,2013-04-22 10:23:00,
2013-04-22 06:28:00,30.9,28.0,30.69,SE,128,0.0,0.0,89,0.00,,,0.00,meteohub,2013-04-22 10:28:00,
2013-04-22 06:33:00,31.3,28.8,30.70,SE,128,0.0,0.0,90,0.00,,,0.00,meteohub,2013-04-22 10:33:00,
2013-04-22 06:38:00,31.6,28.8,30.70,SE,128,0.0,0.0,89,0.00,,,0.00,meteohub,2013-04-22 10:38:00,
2013-04-22 06:43:00,31.6,28.6,30.70,SE,128,0.0,0.0,88,0.00,,,0.00,meteohub,2013-04-22 10:43:00,
2013-04-22 06:48:00,31.6,28.8,30.70,SE,128,0.0,0.0,89,0.00,,,0.00,meteohub,2013-04-22 10:48:00,
2013-04-22 06:53:00,31.8,28.9,30.70,SE,128,0.0,0.0,89,0.00,,,0.00,meteohub,2013-04-22 10:53:00,
2013-04-22 06:58:00,32.2,29.3,30.71,SE,128,0.0,0.0,89,0.00,,,0.00,meteohub,2013-04-22 10:58:00,
2013-04-22 07:03:00,32.5,29.7,30.71,SE,128,0.0,0.0,89,0.00,,,0.00,meteohub,2013-04-22 11:03:00,
2013-04-22 07:08:00,33.3,30.0,30.71,SE,128,0.0,0.0,88,0.00,,,0.00,meteohub,2013-04-22 11:08:00,
2013-04-22 07:13:00,33.6,30.2,30.71,SE,128,0.0,0.0,87,0.00,,,0.00,meteohub,2013-04-22 11:13:00,
2013-04-22 07:18:00,34.2,30.2,30.71,SE,128,0.0,0.0,85,0.00,,,0.00,meteohub,2013-04-22 11:18:00,
2013-04-22 07:23:00,34.3,30.0,30.71,SE,128,0.0,0.0,84,0.00,,,0.00,meteohub,2013-04-22 11:23:00,
2013-04-22 07:28:00,34.3,29.7,30.71,SE,128,0.0,0.0,83,0.00,,,0.00,meteohub,2013-04-22 11:28:00,
2013-04-22 07:33:00,34.3,29.7,30.71,SE,128,0.0,1.0,83,0.00,,,0.00,meteohub,2013-04-22 11:33:00,
2013-04-22 07:38:00,34.5,29.8,30.71,SE,128,1.0,1.0,83,0.00,,,0.00,meteohub,2013-04-22 11:38:00,
2013-04-22 07:43:00,34.7,30.0,30.71,SE,128,0.0,2.0,83,0.00,,,0.00,meteohub,2013-04-22 11:43:00,
2013-04-22 07:48:00,34.9,30.0,30.71,SE,128,0.0,2.0,82,0.00,,,0.00,meteohub,2013-04-22 11:48:00,
2013-04-22 07:53:00,35.1,30.4,30.71,SE,128,0.0,2.0,83,0.00,,,0.00,meteohub,2013-04-22 11:53:00,
2013-04-22 07:58:00,35.4,30.6,30.71,SE,128,0.0,1.0,82,0.00,,,0.00,meteohub,2013-04-22 11:58:00,
2013-04-22 08:03:00,36.1,30.9,30.71,SE,128,0.0,1.0,81,0.00,,,0.00,meteohub,2013-04-22 12:03:00,
2013-04-22 08:08:00,36.7,31.1,30.71,West,278,0.0,1.0,80,0.00,,,0.00,meteohub,2013-04-22 12:08:00,
2013-04-22 08:13:00,37.6,31.1,30.71,WNW,282,0.0,3.0,77,0.00,,,0.00,meteohub,2013-04-22 12:13:00,
2013-04-22 08:18:00,38.3,31.5,30.71,WSW,240,0.0,3.0,76,0.00,,,0.00,meteohub,2013-04-22 12:18:00,
2013-04-22 08:23:00,39.6,31.6,30.71,WSW,240,0.0,3.0,73,0.00,,,0.00,meteohub,2013-04-22 12:23:00,
2013-04-22 08:28:00,40.3,32.0,30.71,WSW,257,0.0,3.0,72,0.00,,,0.00,meteohub,2013-04-22 12:28:00,
2013-04-22 08:33:00,40.5,31.8,30.71,WNW,288,0.0,3.0,71,0.00,,,0.00,meteohub,2013-04-22 12:33:00,
2013-04-22 08:38:00,40.8,32.2,30.71,SSW,198,1.0,3.0,71,0.00,,,0.00,meteohub,2013-04-22 12:38:00,
2013-04-22 08:43:00,41.9,32.5,30.71,East,99,1.0,3.0,69,0.00,,,0.00,meteohub,2013-04-22 12:43:00,
2013-04-22 08:48:00,42.6,30.6,30.71,ESE,116,1.0,4.0,62,0.00,,,0.00,meteohub,2013-04-22 12:48:00,
2013-04-22 08:53:00,43.9,30.9,30.70,ESE,107,1.0,4.0,60,0.00,,,0.00,meteohub,2013-04-22 12:53:00,
2013-04-22 08:58:00,44.4,29.7,30.71,ESE,114,4.0,4.0,56,0.00,,,0.00,meteohub,2013-04-22 12:58:00,
2013-04-22 09:03:00,44.4,30.2,30.70,NE,55,5.0,7.0,57,0.00,,,0.00,meteohub,2013-04-22 13:03:00,
2013-04-22 09:08:00,45.1,30.4,30.70,SE,127,3.0,7.0,56,0.00,,,0.00,meteohub,2013-04-22 13:08:00,
2013-04-22 09:13:00,44.6,29.8,30.70,SE,128,3.0,7.0,56,0.00,,,0.00,meteohub,2013-04-22 13:13:00,
2013-04-22 09:18:00,45.0,29.8,30.70,SE,124,4.0,8.0,55,0.00,,,0.00,meteohub,2013-04-22 13:18:00,
2013-04-22 09:23:00,45.5,31.1,30.70,ESE,107,2.0,8.0,57,0.00,,,0.00,meteohub,2013-04-22 13:23:00,
2013-04-22 09:28:00,45.3,30.9,30.70,East,99,3.0,6.0,57,0.00,,,0.00,meteohub,2013-04-22 13:28:00,
2013-04-22 09:33:00,45.7,30.4,30.70,ESE,115,2.0,6.0,55,0.00,,,0.00,meteohub,2013-04-22 13:33:00,
2013-04-22 09:38:00,46.0,31.3,30.71,SE,138,3.0,9.0,56,0.00,,,0.00,meteohub,2013-04-22 13:38:00,
2013-04-22 09:43:00,46.2,31.5,30.71,SE,130,4.0,9.0,56,0.00,,,0.00,meteohub,2013-04-22 13:43:00,
2013-04-22 09:48:00,46.8,30.0,30.71,ESE,106,3.0,9.0,52,0.00,,,0.00,meteohub,2013-04-22 13:48:00,
2013-04-22 09:53:00,46.8,28.6,30.72,SE,126,3.0,10.0,49,0.00,,,0.00,meteohub,2013-04-22 13:53:00,
2013-04-22 09:58:00,46.9,26.2,30.73,ESE,111,7.0,11.0,44,0.00,,,0.00,meteohub,2013-04-22 13:58:00,
2013-04-22 10:03:00,46.8,28.6,30.73,ESE,108,5.0,13.0,49,0.00,,,0.00,meteohub,2013-04-22 14:03:00,
2013-04-22 10:08:00,47.1,29.8,30.73,SE,128,3.0,13.0,51,0.00,,,0.00,meteohub,2013-04-22 14:08:00,
2013-04-22 10:13:00,49.1,31.3,30.73,ESE,103,4.0,13.0,50,0.00,,,0.00,meteohub,2013-04-22 14:13:00,
2013-04-22 10:18:00,48.0,29.3,30.73,ESE,119,3.0,12.0,48,0.00,,,0.00,meteohub,2013-04-22 14:18:00,
2013-04-22 10:23:00,48.4,28.0,30.73,ENE,63,1.0,10.0,45,0.00,,,0.00,meteohub,2013-04-22 14:23:00,
2013-04-22 10:28:00,48.7,28.4,30.73,East,94,3.0,10.0,45,0.00,,,0.00,meteohub,2013-04-22 14:28:00,
2013-04-22 10:33:00,49.3,29.3,30.72,East,98,3.0,10.0,46,0.00,,,0.00,meteohub,2013-04-22 14:33:00,
2013-04-22 10:38:00,48.7,28.4,30.72,SE,129,6.0,8.0,45,0.00,,,0.00,meteohub,2013-04-22 14:38:00,
2013-04-22 10:43:00,49.6,30.2,30.71,East,92,7.0,10.0,47,0.00,,,0.00,meteohub,2013-04-22 14:43:00,
2013-04-22 10:48:00,49.6,29.7,30.71,ESE,102,4.0,10.0,46,0.00,,,0.00,meteohub,2013-04-22 14:48:00,
2013-04-22 10:52:00,49.6,29.1,30.71,SSE,155,5.0,8.0,45,0.00,,,0.00,meteohub,2013-04-22 14:52:00,
2013-04-22 10:57:00,49.3,27.7,30.71,SE,138,5.0,7.0,43,0.00,,,0.00,meteohub,2013-04-22 14:57:00,
2013-04-22 11:02:00,50.0,28.9,30.71,SE,143,4.0,8.0,44,0.00,,,0.00,meteohub,2013-04-22 15:02:00,
2013-04-22 11:07:00,49.6,29.1,30.70,ENE,63,2.0,8.0,45,0.00,,,0.00,meteohub,2013-04-22 15:07:00,
2013-04-22 11:12:00,50.0,29.5,30.70,ESE,103,2.0,8.0,45,0.00,,,0.00,meteohub,2013-04-22 15:12:00,
2013-04-22 11:17:00,49.6,27.5,30.70,ESE,119,7.0,8.0,42,0.00,,,0.00,meteohub,2013-04-22 15:17:00,
2013-04-22 11:22:00,48.9,28.6,30.70,SSE,167,7.0,12.0,45,0.00,,,0.00,meteohub,2013-04-22 15:22:00,
2013-04-22 11:27:00,49.6,27.5,30.70,ESE,120,9.0,13.0,42,0.00,,,0.00,meteohub,2013-04-22 15:27:00,
2013-04-22 11:32:00,49.3,28.8,30.70,ESE,120,3.0,13.0,45,0.00,,,0.00,meteohub,2013-04-22 15:32:00,
2013-04-22 11:37:00,50.4,28.2,30.70,East,86,1.0,13.0,42,0.00,,,0.00,meteohub,2013-04-22 15:37:00,
2013-04-22 11:42:00,49.6,27.0,30.70,ESE,107,11.0,12.0,41,0.00,,,0.00,meteohub,2013-04-22 15:42:00,
2013-04-22 11:47:00,49.8,28.8,30.70,SE,128,3.0,12.0,44,0.00,,,0.00,meteohub,2013-04-22 15:47:00,
2013-04-22 11:52:00,50.0,27.9,30.69,SE,125,4.0,12.0,42,0.00,,,0.00,meteohub,2013-04-22 15:52:00,
2013-04-22 11:57:00,49.8,27.1,30.69,ESE,122,4.0,12.0,41,0.00,,,0.00,meteohub,2013-04-22 15:57:00,
2013-04-22 12:02:00,49.8,27.1,30.69,SE,145,6.0,9.0,41,0.00,,,0.00,meteohub,2013-04-22 16:02:00,
2013-04-22 12:07:00,50.4,27.5,30.69,SE,128,6.0,9.0,41,0.00,,,0.00,meteohub,2013-04-22 16:07:00,
2013-04-22 12:12:00,49.8,27.7,30.69,ESE,115,7.0,10.0,42,0.00,,,0.00,meteohub,2013-04-22 16:12:00,
2013-04-22 12:17:00,50.5,27.7,30.69,SE,129,5.0,10.0,41,0.00,,,0.00,meteohub,2013-04-22 16:17:00,
2013-04-22 12:22:00,50.2,28.0,30.69,ESE,105,4.0,10.0,42,0.00,,,0.00,meteohub,2013-04-22 16:22:00,
2013-04-22 12:27:00,49.6,27.0,30.69,ESE,118,3.0,12.0,41,0.00,,,0.00,meteohub,2013-04-22 16:27:00,
2013-04-22 12:32:00,49.5,26.8,30.68,SE,124,1.0,12.0,41,0.00,,,0.00,meteohub,2013-04-22 16:32:00,
2013-04-22 12:37:00,50.0,26.6,30.68,East,95,6.0,12.0,40,0.00,,,0.00,meteohub,2013-04-22 16:37:00,
2013-04-22 12:42:00,50.2,27.3,30.68,SSE,168,2.0,10.0,41,0.00,,,0.00,meteohub,2013-04-22 16:42:00,
2013-04-22 12:47:00,49.8,25.9,30.69,ESE,107,7.0,9.0,39,0.00,,,0.00,meteohub,2013-04-22 16:47:00,
2013-04-22 12:52:00,49.5,26.8,30.69,East,93,8.0,11.0,41,0.00,,,0.00,meteohub,2013-04-22 16:52:00,
2013-04-22 12:57:00,49.5,28.4,30.69,East,100,5.0,13.0,44,0.00,,,0.00,meteohub,2013-04-22 16:57:00,
2013-04-22 13:02:00,49.5,25.0,30.69,NE,46,4.0,13.0,38,0.00,,,0.00,meteohub,2013-04-22 17:02:00,
2013-04-22 13:07:00,49.6,25.7,30.69,ESE,122,8.0,13.0,39,0.00,,,0.00,meteohub,2013-04-22 17:07:00,
2013-04-22 13:12:00,49.5,27.3,30.69,ENE,65,2.0,12.0,42,0.00,,,0.00,meteohub,2013-04-22 17:12:00,
2013-04-22 13:17:00,50.4,29.8,30.68,ESE,109,7.0,12.0,45,0.00,,,0.00,meteohub,2013-04-22 17:17:00,
2013-04-22 13:22:00,50.4,27.0,30.67,SE,141,1.0,12.0,40,0.00,,,0.00,meteohub,2013-04-22 17:22:00,
2013-04-22 13:27:00,50.2,25.5,30.67,SE,141,5.0,12.0,38,0.00,,,0.00,meteohub,2013-04-22 17:27:00,
2013-04-22 13:32:00,49.6,27.5,30.68,ESE,104,9.0,12.0,42,0.00,,,0.00,meteohub,2013-04-22 17:32:00,
2013-04-22 13:37:00,49.1,27.0,30.68,East,101,2.0,12.0,42,0.00,,,0.00,meteohub,2013-04-22 17:37:00,
2013-04-22 13:42:00,49.5,27.9,30.68,ENE,67,2.0,12.0,43,0.00,,,0.00,meteohub,2013-04-22 17:42:00,
2013-04-22 13:47:00,49.6,27.0,30.68,East,98,2.0,11.0,41,0.00,,,0.00,meteohub,2013-04-22 17:47:00,
2013-04-22 13:52:00,51.3,28.4,30.67,SE,132,7.0,11.0,41,0.00,,,0.00,meteohub,2013-04-22 17:52:00,
2013-04-22 13:57:00,50.5,25.9,30.67,East,96,7.0,11.0,38,0.00,,,0.00,meteohub,2013-04-22 17:57:00,
2013-04-22 14:02:00,50.4,26.4,30.66,South,179,3.0,9.0,39,0.00,,,0.00,meteohub,2013-04-22 18:02:00,
2013-04-22 14:07:00,51.3,29.5,30.66,East,99,1.0,9.0,43,0.00,,,0.00,meteohub,2013-04-22 18:07:00,
2013-04-22 14:12:00,50.5,25.9,30.65,East,90,1.0,9.0,38,0.00,,,0.00,meteohub,2013-04-22 18:12:00,
2013-04-22 14:17:00,50.2,28.0,30.65,ESE,112,4.0,10.0,42,0.00,,,0.00,meteohub,2013-04-22 18:17:00,
2013-04-22 14:22:00,50.4,27.0,30.65,ESE,118,3.0,10.0,40,0.00,,,0.00,meteohub,2013-04-22 18:22:00,
2013-04-22 14:27:00,49.8,27.1,30.65,ESE,111,5.0,10.0,41,0.00,,,0.00,meteohub,2013-04-22 18:27:00,
2013-04-22 14:32:00,49.5,27.3,30.65,East,81,2.0,11.0,42,0.00,,,0.00,meteohub,2013-04-22 18:32:00,
2013-04-22 14:37:00,49.5,27.9,30.64,ESE,117,2.0,11.0,43,0.00,,,0.00,meteohub,2013-04-22 18:37:00,
2013-04-22 14:42:00,49.5,28.4,30.64,ESE,113,5.0,11.0,44,0.00,,,0.00,meteohub,2013-04-22 18:42:00,
2013-04-22 14:47:00,50.5,28.2,30.64,East,96,3.0,11.0,42,0.00,,,0.00,meteohub,2013-04-22 18:47:00,
2013-04-22 14:52:00,49.6,27.5,30.64,East,101,5.0,11.0,42,0.00,,,0.00,meteohub,2013-04-22 18:52:00,
2013-04-22 14:57:00,49.3,26.6,30.64,ESE,106,2.0,14.0,41,0.00,,,0.00,meteohub,2013-04-22 18:57:00,
2013-04-22 15:02:00,50.0,27.1,30.63,NE,39,1.0,14.0,41,0.00,,,0.00,meteohub,2013-04-22 19:02:00,
2013-04-22 15:07:00,50.2,28.0,30.63,SE,124,3.0,10.0,42,0.00,,,0.00,meteohub,2013-04-22 19:07:00,
2013-04-22 15:12:00,50.2,26.8,30.63,SE,132,9.0,9.0,40,0.00,,,0.00,meteohub,2013-04-22 19:12:00,
2013-04-22 15:17:00,49.3,28.2,30.63,ESE,103,3.0,12.0,44,0.00,,,0.00,meteohub,2013-04-22 19:17:00,
2013-04-22 15:22:00,49.3,27.7,30.63,ESE,123,7.0,12.0,43,0.00,,,0.00,meteohub,2013-04-22 19:22:00,
2013-04-22 15:27:00,49.6,28.6,30.62,ESE,106,1.0,14.0,44,0.00,,,0.00,meteohub,2013-04-22 19:27:00,
2013-04-22 15:32:00,49.8,28.8,30.63,East,79,1.0,14.0,44,0.00,,,0.00,meteohub,2013-04-22 19:32:00,
2013-04-22 15:37:00,50.2,29.7,30.63,ESE,102,4.0,14.0,45,0.00,,,0.00,meteohub,2013-04-22 19:37:00,
2013-04-22 15:42:00,49.6,29.7,30.63,ESE,117,4.0,6.0,46,0.00,,,0.00,meteohub,2013-04-22 19:42:00,
2013-04-22 15:47:00,49.3,29.3,30.63,SE,142,5.0,12.0,46,0.00,,,0.00,meteohub,2013-04-22 19:47:00,
2013-04-22 15:52:00,49.5,30.0,30.63,ESE,117,1.0,12.0,47,0.00,,,0.00,meteohub,2013-04-22 19:52:00,
2013-04-22 15:57:00,49.1,30.2,30.63,ESE,122,8.0,12.0,48,0.00,,,0.00,meteohub,2013-04-22 19:57:00,
2013-04-22 16:02:00,49.5,31.6,30.64,SE,131,9.0,10.0,50,0.00,,,0.00,meteohub,2013-04-22 20:02:00,
2013-04-22 16:07:00,48.7,31.5,30.63,SE,131,1.0,11.0,51,0.00,,,0.00,meteohub,2013-04-22 20:07:00,
2013-04-22 16:12:00,48.7,30.9,30.63,ESE,115,4.0,12.0,50,0.00,,,0.00,meteohub,2013-04-22 20:12:00,
2013-04-22 16:17:00,47.8,32.0,30.63,SE,133,4.0,13.0,54,0.00,,,0.00,meteohub,2013-04-22 20:17:00,
2013-04-22 16:22:00,48.4,32.9,30.62,East,101,3.0,13.0,55,0.00,,,0.00,meteohub,2013-04-22 20:22:00,
2013-04-22 16:27:00,47.1,31.3,30.62,SE,141,4.0,13.0,54,0.00,,,0.00,meteohub,2013-04-22 20:27:00,
2013-04-22 16:32:00,47.5,32.5,30.62,East,94,1.0,12.0,56,0.00,,,0.00,meteohub,2013-04-22 20:32:00,
2013-04-22 16:37:00,47.5,32.5,30.62,ENE,74,2.0,12.0,56,0.00,,,0.00,meteohub,2013-04-22 20:37:00,
2013-04-22 16:42:00,46.8,32.7,30.63,ESE,110,4.0,12.0,58,0.00,,,0.00,meteohub,2013-04-22 20:42:00,
2013-04-22 16:47:00,46.4,32.4,30.63,ENE,74,2.0,13.0,58,0.00,,,0.00,meteohub,2013-04-22 20:47:00,
2013-04-22 16:52:00,47.3,34.2,30.62,ESE,115,11.0,13.0,60,0.00,,,0.00,meteohub,2013-04-22 20:52:00,
2013-04-22 16:57:00,46.6,33.4,30.62,ESE,114,5.0,15.0,60,0.00,,,0.00,meteohub,2013-04-22 20:57:00,
2013-04-22 17:02:00,46.0,33.8,30.62,ESE,111,2.0,15.0,62,0.00,,,0.00,meteohub,2013-04-22 21:02:00,
2013-04-22 17:07:00,46.4,34.2,30.62,ESE,107,3.0,15.0,62,0.00,,,0.00,meteohub,2013-04-22 21:07:00,
2013-04-22 17:12:00,45.7,34.5,30.62,East,94,3.0,9.0,65,0.00,,,0.00,meteohub,2013-04-22 21:12:00,
2013-04-22 17:17:00,45.0,34.3,30.62,NW,307,2.0,9.0,66,0.00,,,0.00,meteohub,2013-04-22 21:17:00,
2013-04-22 17:22:00,45.3,34.7,30.63,East,93,6.0,9.0,66,0.00,,,0.00,meteohub,2013-04-22 21:22:00,
2013-04-22 17:27:00,45.1,34.5,30.62,ESE,108,2.0,8.0,66,0.00,,,0.00,meteohub,2013-04-22 21:27:00,
2013-04-22 17:32:00,44.4,34.2,30.62,SSE,155,6.0,8.0,67,0.00,,,0.00,meteohub,2013-04-22 21:32:00,
2013-04-22 17:37:00,44.4,34.2,30.62,SE,141,0.0,9.0,67,0.00,,,0.00,meteohub,2013-04-22 21:37:00,
2013-04-22 17:42:00,45.1,34.5,30.62,SE,139,2.0,9.0,66,0.00,,,0.00,meteohub,2013-04-22 21:42:00,
2013-04-22 17:47:00,45.0,34.3,30.62,SE,126,5.0,9.0,66,0.00,,,0.00,meteohub,2013-04-22 21:47:00,
2013-04-22 17:52:00,44.4,34.2,30.62,ESE,121,4.0,6.0,67,0.00,,,0.00,meteohub,2013-04-22 21:52:00,
2013-04-22 17:57:00,44.4,34.2,30.62,SE,136,4.0,9.0,67,0.00,,,0.00,meteohub,2013-04-22 21:57:00,
2013-04-22 18:02:00,44.1,33.8,30.62,ESE,107,3.0,10.0,67,0.00,,,0.00,meteohub,2013-04-22 22:02:00,
2013-04-22 18:07:00,43.9,34.0,30.62,ESE,113,3.0,11.0,68,0.00,,,0.00,meteohub,2013-04-22 22:07:00,
2013-04-22 18:12:00,43.9,34.3,30.62,ESE,115,2.0,11.0,69,0.00,,,0.00,meteohub,2013-04-22 22:12:00,
2013-04-22 18:17:00,43.5,33.6,30.62,ESE,115,2.0,11.0,68,0.00,,,0.00,meteohub,2013-04-22 22:17:00,
2013-04-22 18:22:00,43.3,33.8,30.62,ESE,105,3.0,9.0,69,0.00,,,0.00,meteohub,2013-04-22 22:22:00,
2013-04-22 18:27:00,43.3,33.8,30.62,SE,124,3.0,9.0,69,0.00,,,0.00,meteohub,2013-04-22 22:27:00,
2013-04-22 18:32:00,43.3,33.8,30.62,ESE,106,3.0,8.0,69,0.00,,,0.00,meteohub,2013-04-22 22:32:00,
2013-04-22 18:37:00,43.2,33.6,30.62,SE,128,0.0,7.0,69,0.00,,,0.00,meteohub,2013-04-22 22:37:00,
2013-04-22 18:42:00,43.2,33.6,30.62,SE,127,1.0,6.0,69,0.00,,,0.00,meteohub,2013-04-22 22:42:00,
2013-04-22 18:47:00,43.2,33.6,30.62,ESE,104,3.0,7.0,69,0.00,,,0.00,meteohub,2013-04-22 22:47:00,
2013-04-22 18:52:00,43.0,33.4,30.61,SE,130,5.0,8.0,69,0.00,,,0.00,meteohub,2013-04-22 22:52:00,
2013-04-22 18:57:00,42.6,33.1,30.62,ESE,123,4.0,8.0,69,0.00,,,0.00,meteohub,2013-04-22 22:57:00,
2013-04-22 19:02:00,43.0,33.8,30.62,ESE,117,3.0,8.0,70,0.00,,,0.00,meteohub,2013-04-22 23:02:00,
2013-04-22 19:07:00,42.8,33.6,30.62,SE,129,2.0,8.0,70,0.00,,,0.00,meteohub,2013-04-22 23:07:00,
2013-04-22 19:12:00,42.6,33.8,30.62,SE,132,2.0,8.0,71,0.00,,,0.00,meteohub,2013-04-22 23:12:00,
2013-04-22 19:17:00,42.4,33.4,30.61,East,88,3.0,7.0,70,0.00,,,0.00,meteohub,2013-04-22 23:17:00,
2013-04-22 19:22:00,42.4,33.6,30.61,East,98,2.0,7.0,71,0.00,,,0.00,meteohub,2013-04-22 23:22:00,
2013-04-22 19:27:00,42.4,33.6,30.61,SE,134,4.0,7.0,71,0.00,,,0.00,meteohub,2013-04-22 23:27:00,
2013-04-22 19:32:00,42.3,33.3,30.61,ESE,113,4.0,8.0,70,0.00,,,0.00,meteohub,2013-04-22 23:32:00,
2013-04-22 19:37:00,42.1,33.4,30.61,ESE,103,2.0,8.0,71,0.00,,,0.00,meteohub,2013-04-22 23:37:00,
2013-04-22 19:42:00,41.7,32.7,30.61,East,90,6.0,8.0,70,0.00,,,0.00,meteohub,2013-04-22 23:42:00,
2013-04-22 19:47:00,41.5,32.5,30.62,ESE,109,3.0,7.0,70,0.00,,,0.00,meteohub,2013-04-22 23:47:00,
2013-04-22 19:52:00,41.4,32.4,30.62,ESE,119,2.0,7.0,70,0.00,,,0.00,meteohub,2013-04-22 23:52:00,
2013-04-22 19:57:00,41.2,32.5,30.61,SE,138,1.0,7.0,71,0.00,,,0.00,meteohub,2013-04-22 23:57:00,
2013-04-22 20:02:00,41.0,32.4,30.62,SSE,156,8.0,8.0,71,0.00,,,0.00,meteohub,2013-04-23 00:02:00,
2013-04-22 20:07:00,40.8,31.1,30.61,ESE,122,5.0,9.0,68,0.00,,,0.00,meteohub,2013-04-23 00:07:00,
2013-04-22 20:12:00,40.6,30.9,30.62,East,94,6.0,9.0,68,0.00,,,0.00,meteohub,2013-04-23 00:12:00,
2013-04-22 20:17:00,40.6,30.6,30.61,ESE,119,2.0,9.0,67,0.00,,,0.00,meteohub,2013-04-23 00:17:00,
2013-04-22 20:22:00,40.5,30.0,30.61,SE,126,3.0,8.0,66,0.00,,,0.00,meteohub,2013-04-23 00:22:00,
2013-04-22 20:27:00,40.3,30.2,30.61,ENE,59,1.0,9.0,67,0.00,,,0.00,meteohub,2013-04-23 00:27:00,
2013-04-22 20:32:00,40.1,30.4,30.62,East,88,3.0,9.0,68,0.00,,,0.00,meteohub,2013-04-23 00:32:00,
2013-04-22 20:37:00,39.9,30.6,30.61,SE,141,3.0,9.0,69,0.00,,,0.00,meteohub,2013-04-23 00:37:00,
2013-04-22 20:42:00,39.9,30.9,30.62,SE,126,2.0,6.0,70,0.00,,,0.00,meteohub,2013-04-23 00:42:00,
2013-04-22 20:47:00,39.7,30.7,30.62,ESE,113,3.0,6.0,70,0.00,,,0.00,meteohub,2013-04-23 00:47:00,
2013-04-22 20:52:00,39.7,31.1,30.62,ESE,113,1.0,8.0,71,0.00,,,0.00,meteohub,2013-04-23 00:52:00,
2013-04-22 20:57:00,39.6,30.9,30.62,SE,126,0.0,8.0,71,0.00,,,0.00,meteohub,2013-04-23 00:57:00,
2013-04-22 21:02:00,39.4,31.1,30.62,ENE,78,1.0,8.0,72,0.00,,,0.00,meteohub,2013-04-23 01:02:00,
2013-04-22 21:07:00,39.4,31.1,30.62,ENE,78,0.0,4.0,72,0.00,,,0.00,meteohub,2013-04-23 01:07:00,
2013-04-22 21:12:00,39.4,31.1,30.62,ESE,123,0.0,5.0,72,0.00,,,0.00,meteohub,2013-04-23 01:12:00,
2013-04-22 21:17:00,39.2,30.9,30.61,East,92,2.0,5.0,72,0.00,,,0.00,meteohub,2013-04-23 01:17:00,
2013-04-22 21:22:00,39.0,30.7,30.61,ESE,117,2.0,5.0,72,0.00,,,0.00,meteohub,2013-04-23 01:22:00,
2013-04-22 21:27:00,39.0,30.7,30.61,ESE,113,1.0,5.0,72,0.00,,,0.00,meteohub,2013-04-23 01:27:00,
2013-04-22 21:32:00,39.0,30.7,30.61,East,98,2.0,5.0,72,0.00,,,0.00,meteohub,2013-04-23 01:32:00,
2013-04-22 21:37:00,38.8,30.6,30.61,East,99,2.0,5.0,72,0.00,,,0.00,meteohub,2013-04-23 01:37:00,
2013-04-22 21:42:00,38.8,30.9,30.61,SE,130,2.0,5.0,73,0.00,,,0.00,meteohub,2013-04-23 01:42:00,
2013-04-22 21:47:00,38.7,30.7,30.61,SE,124,2.0,5.0,73,0.00,,,0.00,meteohub,2013-04-23 01:47:00,
2013-04-22 21:52:00,38.8,30.9,30.61,SE,127,1.0,5.0,73,0.00,,,0.00,meteohub,2013-04-23 01:52:00,
2013-04-22 21:57:00,38.7,30.7,30.61,ESE,107,1.0,5.0,73,0.00,,,0.00,meteohub,2013-04-23 01:57:00,
2013-04-22 22:02:00,38.7,30.7,30.61,SE,132,1.0,5.0,73,0.00,,,0.00,meteohub,2013-04-23 02:02:00,
2013-04-22 22:07:00,38.7,31.1,30.60,ESE,114,1.0,5.0,74,0.00,,,0.00,meteohub,2013-04-23 02:07:00,
2013-04-22 22:12:00,38.7,31.1,30.60,ESE,117,1.0,5.0,74,0.00,,,0.00,meteohub,2013-04-23 02:12:00,
2013-04-22 22:17:00,38.5,30.9,30.60,ESE,114,2.0,4.0,74,0.00,,,0.00,meteohub,2013-04-23 02:17:00,
2013-04-22 22:22:00,38.5,30.6,30.60,SE,124,1.0,4.0,73,0.00,,,0.00,meteohub,2013-04-23 02:22:00,
2013-04-22 22:27:00,38.5,30.6,30.59,ESE,118,1.0,6.0,73,0.00,,,0.00,meteohub,2013-04-23 02:27:00,
2013-04-22 22:32:00,38.5,30.6,30.59,ESE,107,1.0,6.0,73,0.00,,,0.00,meteohub,2013-04-23 02:32:00,
2013-04-22 22:37:00,38.3,30.4,30.59,SE,127,2.0,6.0,73,0.00,,,0.00,meteohub,2013-04-23 02:37:00,
2013-04-22 22:42:00,38.3,30.7,30.59,ESE,119,1.0,4.0,74,0.00,,,0.00,meteohub,2013-04-23 02:42:00,
2013-04-22 22:47:00,38.3,30.7,30.59,SSE,161,0.0,3.0,74,0.00,,,0.00,meteohub,2013-04-23 02:47:00,
2013-04-22 22:52:00,38.1,30.6,30.59,SSE,161,0.0,3.0,74,0.00,,,0.00,meteohub,2013-04-23 02:52:00,
2013-04-22 22:57:00,38.1,30.6,30.58,SE,145,0.0,2.0,74,0.00,,,0.00,meteohub,2013-04-23 02:57:00,
2013-04-22 23:02:00,38.1,30.9,30.59,SE,145,0.0,3.0,75,0.00,,,0.00,meteohub,2013-04-23 03:02:00,
2013-04-22 23:07:00,37.9,30.4,30.58,SE,145,0.0,3.0,74,0.00,,,0.00,meteohub,2013-04-23 03:07:00,
2013-04-22 23:12:00,37.9,30.7,30.59,SE,145,0.0,2.0,75,0.00,,,0.00,meteohub,2013-04-23 03:12:00,
2013-04-22 23:17:00,37.9,30.7,30.58,SE,145,0.0,2.0,75,0.00,,,0.00,meteohub,2013-04-23 03:17:00,
2013-04-22 23:22:00,37.9,30.7,30.58,SE,145,0.0,2.0,75,0.00,,,0.00,meteohub,2013-04-23 03:22:00,
2013-04-22 23:27:00,37.9,30.7,30.58,SE,145,1.0,2.0,75,0.00,,,0.00,meteohub,2013-04-23 03:27:00,
2013-04-22 23:32:00,37.9,30.7,30.58,SE,145,1.0,1.0,75,0.00,,,0.00,meteohub,2013-04-23 03:32:00,
2013-04-22 23:37:00,37.9,30.7,30.58,SE,145,1.0,2.0,75,0.00,,,0.00,meteohub,2013-04-23 03:37:00,
2013-04-22 23:42:00,37.8,30.6,30.58,SE,145,0.0,2.0,75,0.00,,,0.00,meteohub,2013-04-23 03:42:00,
2013-04-22 23:47:00,37.9,31.1,30.57,SE,145,0.0,2.0,76,0.00,,,0.00,meteohub,2013-04-23 03:47:00,
2013-04-22 23:52:00,37.8,30.9,30.58,SE,145,0.0,2.0,76,0.00,,,0.00,meteohub,2013-04-23 03:52:00,
2013-04-22 23:57:00,37.8,30.9,30.57,SE,145,2.0,2.0,76,0.00,,,0.00,meteohub,2013-04-23 03:57:00,